Вернуться в каталог

STARLINK-34984

АктивенСвязьSSO
NORAD 65290·PAYLOAD·🇺🇸 United States

Запущен Aug 22, 2025 с Vandenberg Space Force Base

Loading…

Ближайшие Пролёты (ближайшие 24 часа)

TLE

СвежийSource: CelesTrak SupGP

Эпоха: Sep 14, 2026, 15:31 UTC

1 65290C 25184T   26257.64701389  .00006158  00000+0  19130-3 0  2575
2 65290  97.2843 305.6995 0000919  96.6865  35.3043 15.33413068    16

Отслеживайте STARLINK-34984 в реальном времени с AllMySat

Download on the App Store